Weather History for Imperial, NE

Change the Weather History Date:

Friday, November 23, 2012

  Actual Average Record
Temperature  
Mean Temperature 34 °F 34 °F  
Max Temperature 49 °F 48 °F 76 °F (1998)
Min Temperature 19 °F 21 °F -4 °F (1898)
Degree Days  
Heating Degree Days 31 31  
Month to date heating degree days 516 593  
Cooling Degree Days 0 0  
Month to date cooling degree days 0 0  
Year to date cooling degree days 1382 963  
Moisture  
Dew Point 14 °F    
Average Humidity 48    
Maximum Humidity 73    
Minimum Humidity 23    
Precipitation  
Precipitation 0.00 in 0.02 in 0.46 in (1999)
Sea Level Pressure  
Sea Level Pressure 30.49 in    
Wind  
Wind Speed 7 mph (West)    
Max Wind Speed 15 mph    
Max Gust Speed 20 mph    
Visibility 10 miles    
Events      
T = Trace of Precipitation, MM = Missing Value Source: NWS Daily Summary

Daily Weather History Graph

Daily Weather History Graph

Search for Another Location

Airport:

Trip Planner

Search our weather history database for the weather conditions in past years. The results will help you decide how hot, cold, wet, or windy it might be!

Date:

Astronomy

Nov. 23, 2012 Rise Set
Actual Time 6:42 AM MST 4:23 PM MST
Civil Twilight 6:12 AM MST 4:53 PM MST
Nautical Twilight 5:39 AM MST 5:26 PM MST
Astronomical Twilight 5:06 AM MST 5:59 PM MST
Moon 1:39 PM MST (11/23) 2:02 AM MST (11/23)
Length of Visible Light 10h 40m
Length of Day
9h 40m
Waxing Gibbous, 80% of the Moon is Illuminated
Nov 23
Waxing Gibbous
Nov 28
Full
Dec 6
Last Quarter
Dec 13
New
Dec 19
First Quarter

Hourly Weather History & Observations

Time (MST) Temp. Windchill Dew Point Humidity Pressure Visibility Wind Dir Wind Speed Gust Speed Precip Events Conditions
12:53 AM 28.0 °F 20.0 °F 12.9 °F 53% 30.52 in 10.0 mi West 8.1 mph - N/A   Clear
1:53 AM 26.1 °F 15.6 °F 12.9 °F 58% 30.54 in 10.0 mi West 11.5 mph - N/A   Clear
2:53 AM 23.0 °F 13.9 °F 12.9 °F 65% 30.56 in 10.0 mi NNW 8.1 mph - N/A   Clear
3:53 AM 19.9 °F 11.1 °F 12.0 °F 71% 30.58 in 10.0 mi WNW 6.9 mph - N/A   Clear
4:53 AM 23.0 °F 12.4 °F 14.0 °F 68% 30.59 in 10.0 mi NW 10.4 mph - N/A   Clear
5:53 AM 24.1 °F 14.4 °F 14.0 °F 65% 30.60 in 10.0 mi NW 9.2 mph - N/A   Clear
6:53 AM 19.9 °F 10.1 °F 12.0 °F 71% 30.63 in 10.0 mi WNW 8.1 mph - N/A   Clear
7:53 AM 25.0 °F 17.1 °F 14.0 °F 63% 30.64 in 10.0 mi WNW 6.9 mph - N/A   Clear
8:53 AM 30.0 °F 24.1 °F 16.0 °F 56% 30.63 in 10.0 mi NW 5.8 mph - N/A   Clear
9:53 AM 35.1 °F 28.6 °F 16.0 °F 46% 30.63 in 10.0 mi NW 8.1 mph - N/A   Clear
10:53 AM 39.0 °F 34.8 °F 17.1 °F 41% 30.58 in 10.0 mi WNW 5.8 mph - N/A   Clear
11:53 AM 45.0 °F 40.6 °F 15.1 °F 30% 30.53 in 10.0 mi NW 8.1 mph - N/A   Clear
12:53 PM 46.9 °F - 14.0 °F 27% 30.50 in 10.0 mi WNW 5.8 mph - N/A   Clear
1:53 PM 48.9 °F - 14.0 °F 25% 30.47 in 10.0 mi West 6.9 mph - N/A   Clear
2:53 PM 48.0 °F - 12.9 °F 24% 30.45 in 10.0 mi SW 9.2 mph - N/A   Clear
3:53 PM 44.1 °F 42.5 °F 12.9 °F 28% 30.46 in 10.0 mi SSW 3.5 mph - N/A   Clear
4:53 PM 36.0 °F 30.3 °F 12.9 °F 39% 30.43 in 10.0 mi SSE 6.9 mph - N/A   Clear
5:53 PM 33.1 °F 28.7 °F 12.0 °F 42% 30.43 in 10.0 mi SSE 4.6 mph - N/A   Clear
6:53 PM 30.0 °F 23.2 °F 12.9 °F 49% 30.42 in 10.0 mi SSE 6.9 mph - N/A   Clear
7:53 PM 32.0 °F 25.6 °F 14.0 °F 48% 30.38 in 10.0 mi South 6.9 mph - N/A   Clear
8:53 PM 35.1 °F 27.4 °F 12.9 °F 40% 30.34 in 10.0 mi South 10.4 mph - N/A   Clear
9:53 PM 30.0 °F 25.2 °F 12.9 °F 49% 30.32 in 10.0 mi SW 4.6 mph - N/A   Clear
10:53 PM 28.0 °F 22.8 °F 12.9 °F 53% 30.29 in 10.0 mi SSW 4.6 mph - N/A   Clear
11:53 PM 27.0 °F - 12.0 °F 53% 30.25 in 10.0 mi Calm Calm - N/A   Clear